OpenBCM V1.13 (Linux)

Packet Radio Mailbox

DB0FHN

[JN59NK Nuernberg]

 Login: GUEST





  
LU9DCE > KEP      30.04.19 19:34l 250 Lines 12424 Bytes #999 (0) @ WW
BID : 23187_LU9DCE
Read: DK3UZ DF7EAV GUEST
Subj: TLE 30 04
Path: DB0FHN<DB0BLO<DB0ERF<DB0RES<IR2UBX<IW8PGT<LU4ECL<VE2PKT<N3HYM<LU9DCE
Sent: 190430/1801Z 23187@LU9DCE.TOR.BA.ARG.SOAM LinBPQ6.0.18

            __    _  _  ___  ____   ___  ____    ____  ____  ____
           (  )  / )( \/ _ \(    \ / __)(  __)  (  _ \(  _ \/ ___)
           / (_/\) \/ (\__  )) D (( (__  ) _)    ) _ ( ) _ (\___ \
           \____/\____/(___/(____/ \___)(____)  (____/(____/(____/
               ESTACION DE PACKET RADIO - BUENOS AIRES (GF05OM)
                   BOLETINES INFORMATIVOS PROGRAMADOS (BIP)
              28.125 USB @ 300 BAUD --- HELLOCODELINUX@GMAIL.COM

+----------------------------------------------------------------------------+
OSCAR 7
1  7530U 74089B   19120.47860034 -.00000036  00000-0  52991-4 0  9998
2  7530 101.7394  88.6535 0012581  82.0903  28.4550 12.53637837 34350
OSCAR 11 (UoSAT 2)
1 14781U 84021B   19119.63856011  .00000057  00000-0  13065-4 0  9998
2 14781  97.6154 146.7122 0009865 119.4366 240.7834 14.83079508891344
OSCAR 19 (LUSAT)
1 20442U 90005G   19120.51075415 -.00000012  00000-0  11869-4 0  9990
2 20442  98.6450  62.6034 0010745 297.5588  62.4504 14.32923424529335
EYESAT A
1 22825U 93061C   19120.03343401  .00000006  00000-0  20094-4 0  9994
2 22825  98.9010 107.5441 0009092 138.0406 222.1474 14.30056876334857
ITAMSAT
1 22826U 93061D   19120.53632483 -.00000003  00000-0  16577-4 0  9990
2 22826  98.8951 108.0560 0009773 126.8308 233.3771 14.30390185335120
RADIO ROSTO
1 23439U 94085A   19119.58336423 -.00000051 +00000-0 -24861-3 0  9994
2 23439 064.8159 197.1568 0147149 122.9494 238.5676 11.27567714002246
JAS 2
1 24278U 96046B   19119.93378402 -.00000042 +00000-0 -61727-5 0  9991
2 24278 098.5301 280.1107 0350477 009.2394 351.4977 13.53090750120825
TECHSAT 1B
1 25397U 98043D   19119.79029044 -.00000025 +00000-0 +81866-5 0  9998
2 25397 098.6852 060.5493 0001634 138.2526 221.8778 14.23664232080550
ISS (ZARYA)
1 25544U 98067A   19120.47555463  .00001392  00000-0  29696-4 0  9993
2 25544  51.6410 238.3401 0000882 256.6162 231.9870 15.52607614167849
PCSAT
1 26931U 01043C   19120.42078203 -.00000032  00000-0  19660-4 0  9990
2 26931  67.0493 130.8229 0006133 279.4150  80.6258 14.30539840917922
SAUDISAT 1C
1 27607U 02058C   19120.20644955 -.00000023  00000-0  17619-4 0  9999
2 27607  64.5549 200.8903 0082373 265.9535  93.2149 14.75539852879738
CUTE-1
1 27844U 03031E   19120.54555361  .00000051  00000-0  42665-4 0  9992
2 27844  98.6855 129.4908 0010086 166.5797 193.5651 14.22172825821305
CUBESAT XI 4
1 27848U 03031J   19120.52370559  .00000037  00000-0  36458-4 0  9995
2 27848  98.6933 129.9584 0009747 177.6596 182.4629 14.21768566821150
MOZHAYETS 4
1 27939U 03042A   19120.38575747  .00000054  00000-0  18191-4 0  9991
2 27939  98.0311 257.1851 0012057 219.0760 140.9577 14.66772733833310
CUBESAT XI 5
1 28895U 05043F   19119.94539962 +.00000122 +00000-0 +32230-4 0  9991
2 28895 097.9511 264.4037 0017711 145.1566 215.0800 14.63653535719977
CUTE-1.7+APD II
1 32785U 08021C   19120.53865514  .00000205  00000-0  27773-4 0  9993
2 32785  97.5497 122.5728 0014614  68.6955 291.5822 14.88286593596373
DELFI C3
1 32789U 08021G   19120.14745966  .00001371  00000-0  95986-4 0  9998
2 32789  97.4694 171.2981 0010617 297.8681  62.1471 15.06833950599504
SEEDS
1 32791U 08021J   19119.76708445 +.00000396 +00000-0 +45589-4 0  9998
2 32791 097.5292 127.7565 0014586 049.1084 311.1395 14.90785620596590
YUBELEINY
1 32953U 08025A   19120.46882576  .00000020  00000-0  75656-4 0  9991
2 32953  82.5053 175.3761 0018160 234.0209 125.9186 12.43089032496196
PRISM (HITOMI)
1 33493U 09002B   19119.98689386  .00000987  00000-0  92067-4 0  9993
2 33493  98.1227  39.0567 0014936 354.2332   5.8714 14.96597758557719
KKS-1 (KISEKI)
1 33499U 09002H   19120.50727003  .00000109  00000-0  24083-4 0  9997
2 33499  98.3536 317.6373 0009385  11.4144 348.7275 14.75427736551973
SWISSCUBE
1 35932U 09051B   19120.40166043  .00000124  00000-0  39008-4 0  9995
2 35932  98.5828 284.9455 0006748 324.2036  35.8708 14.56268474509604
BEESAT
1 35933U 09051C   19120.13286921  .00000110  00000-0  35840-4 0  9999
2 35933  98.5859 286.4032 0005255 342.6203  17.4813 14.56359666509673
ITUPSAT 1
1 35935U 09051E   19119.74954100  .00000080  00000-0  29570-4 0  9996
2 35935  98.5969 286.2500 0007494 336.8970  23.1888 14.55521630509372
XIWANG-1 (HOPE-1)
1 36122U 09072B   19120.10469552 -.00000058  00000-0 -41370-4 0  9991
2 36122 100.0727 124.8149 0008159  96.6802 263.5240 13.16349118450352
TISAT 1
1 36799U 10035E   19119.95653359 +.00000454 +00000-0 +51905-4 0  9996
2 36799 098.1487 270.4803 0011040 246.1539 113.8521 14.91064648477151
JUGNU
1 37839U 11058B   19119.50914632  .00000306  00000-0  21472-4 0  9995
2 37839  19.9611 279.0914 0018944 133.5203 268.5922 14.12648513390151
SRMSAT
1 37841U 11058D   19119.92019638 +.00000317 +00000-0 +29420-4 0  9999
2 37841 019.9732 332.3421 0011681 010.1620 080.5098 14.10630214389564
M-CUBED/EXP-1 PRIME
1 37855U 11061F   19119.61702072  .00000435  00000-0  30176-4 0  9996
2 37855 101.7219 349.4997 0173789 225.2062 133.4907 15.05297041409240
HORYU 2
1 38340U 12025D   19119.94248079 +.00000136 +00000-0 +27880-4 0  9991
2 38340 098.3343 157.0265 0010143 284.0291 075.9789 14.75698006363419
STRAND 1
1 39090U 13009E   19119.79517302  .00000035  00000-0  27587-4 0  9990
2 39090  98.4938 326.5776 0010363  78.6648 281.5701 14.35080189323238
SOMP
1 39134U 13015E   19120.14904810  .00000867  00000-0  49219-4 0  9990
2 39134  64.8629 180.9319 0026223 311.0198  48.8661 15.20025201333062
BEESAT 3
1 39135U 13015F   19120.18128230  .00000659  00000-0  42660-4 0  9991
2 39135  64.8664 198.4386 0013815 321.8416  38.1730 15.17352842332737
BEESAT 2
1 39136U 13015G   19120.52956803  .00000738  00000-0  47304-4 0  9993
2 39136  64.8693 200.9850 0014811 312.3160  47.6710 15.16797892332711
CUBEBUG 1
1 39153U 13018D   19120.22467422  .00000140  00000-0  25228-4 0  9994
2 39153  97.9749 218.6376 0016877   3.9642 356.1701 14.80546442324497
ZACUBE
1 39417U 13066B   19120.52216831  .00000189  00000-0  30167-4 0  9990
2 39417  97.5654 136.7810 0058618 193.7156 166.2468 14.81090785293761
TRITON 1
1 39427U 13066M   19119.89629190  .00000180  00000-0  36977-4 0  9991
2 39427  97.6723 100.3622 0113004 325.6179  33.7750 14.67817331291038
GOMX 1
1 39430U 13066Q   19120.45838668  .00000208  00000-0  46381-4 0  9992
2 39430  97.7416  80.2684 0152642  49.7639 311.6794 14.59228359289425
HUMSAT D
1 39433U 13066T   19120.39317619  .00000252  00000-0  29880-4 0  9990
2 39433  97.5589 169.8996 0032467 104.7961 255.6859 14.92146093295729
CUBEBUG 2
1 39440U 13066AA  19119.98613440  .00000169  00000-0  30691-4 0  9991
2 39440  97.6021 121.3599 0078843 246.0162 113.2779 14.75830207292648
FUNCUBE 1
1 39444U 13066AE  19120.54980900  .00000227  00000-0  34327-4 0  9992
2 39444  97.5637 138.7037 0057906 187.6358 172.3980 14.81904004292652
UWE-3
1 39446U 13066AG  19120.54925021  .00000173  00000-0  29749-4 0  9999
2 39446  97.5825 128.8511 0069037 219.4310 140.1866 14.78364374292001
SPROUT
1 39770U 14029E   19120.51943504  .00000488  00000-0  60212-4 0  9991
2 39770  97.8796 224.1484 0007616 246.9239 113.1188 14.87274064267522
UNISAT 6
1 40012U 14033C   19120.52652223  .00000136  00000-0  27793-4 0  9990
2 40012  97.7649 349.2366 0056883 256.2785 103.2087 14.73956139261445
DUCHIFAT 1
1 40021U 14033M   19120.20497045  .00000423  00000-0  49088-4 0  9994
2 40021  97.9234  44.6386 0012004 208.0315 152.0258 14.90587039264179
QB50P1
1 40025U 14033R   19119.83506232  .00000205  00000-0  27831-4 0  9994
2 40025  97.9066  39.5989 0011380 218.6231 141.4172 14.88912142263909
CHUBUSAT 1
1 40300U 14070C   19120.21638947  .00000495  00000-0  24603-4 0  9999
2 40300  97.3278 195.6425 0018748 228.8003 192.5380 15.22012295248492
NUDT-PHONESAT
1 40900U 15049B   19120.49902626  .00001913  00000-0  85278-4 0  9991
2 40900  97.4392 130.3227 0013006   6.9765 144.9897 15.22579559200172
ZDPS 2A
1 40901U 15049C   19120.50239779  .00000806  00000-0  43325-4 0  9993
2 40901  97.4611 127.0404 0014451  21.7361 129.2517 15.17636086199770
ZDPS 2B
1 40902U 15049D   19120.45652477  .00001038  00000-0  55148-4 0  9996
2 40902  97.4549 124.5636 0014456  19.0279 138.8279 15.17419251199744
XW-2A
1 40903U 15049E   19120.51946483  .00001504  00000-0  37672-4 0  9997
2 40903  97.3439 162.9952 0012709 331.5250 134.5235 15.41654065202672
KAITUO 1A
1 40904U 15049F   19120.41409072  .00000596  00000-0  35094-4 0  9991
2 40904  97.4674 123.2701 0015789  24.7878 111.7609 15.15316156199534
OBJECT G
1 40905U 15049G   19120.45768017  .00000568  00000-0  34549-4 0  9996
2 40905  97.4701 120.9271 0016396  19.5436 106.3277 15.14248893199429
XW-2C
1 40906U 15049H   19120.35341677  .00000583  00000-0  34144-4 0  9993
2 40906  97.4683 123.2533 0015631  17.5681  89.2054 15.15606291199521
XW-2D
1 40907U 15049J   19120.40359480  .00000858  00000-0  48302-4 0  9997
2 40907  97.4657 122.9815 0015227  14.6487  95.0180 15.15790875199544
LILACSAT 2
1 40908U 15049K   19120.42224818  .00000441  00000-0  28016-4 0  9994
2 40908  97.4788 121.9270 0017025  18.7498 116.7967 15.13761071199356
XW-2F
1 40910U 15049M   19120.41153150  .00001119  00000-0  59604-4 0  9996
2 40910  97.4632 124.8754 0015506   8.7432 101.1736 15.17187967199548
XW-2B
1 40911U 15049N   19120.36752688  .00000403  00000-0  24572-4 0  9993
2 40911  97.4684 123.5802 0014869  15.6902  91.3751 15.15719220199432
KAITUO 1B
1 40912U 15049P   19120.45045196  .00000974  00000-0  49036-4 0  9998
2 40912  97.4516 128.4461 0014896 351.8279 113.2824 15.19484141199838
TIANWANG 1C (TW-1C)
1 40926U 15051B   19120.49625186  .00009515  00000-0  14507-3 0  9997
2 40926  97.1410 166.7534 0008249 181.5891 286.0688 15.54644397202519
